Terug naar catalogus

ICEYE-X76

ActiefWetenschapSSO
NORAD 68502·PAYLOAD·🇵🇱 Poland

Gelanceerd Mar 30, 2026 vanaf Vandenberg Space Force Base

Loading…

Volgende Passages (komende 24 uur)

TLE

VersSource: Space-Track

Epoch: Sep 14, 2026, 20:53 UTC

1 68502U 26067CQ  26257.87064858  .00000685  00000-0  73352-4 0  9993
2 68502  97.7722 214.8145 0003630  79.2283 280.9344 14.91852646 25097

Volg ICEYE-X76 in realtime met AllMySat

Download on the App Store